DLH37T EDDF-LOWS

Flight info

Callsign DLH37T
Flight time 0h 43m
Altitude 29000
Route CINDY8S CINDY Z74 HAREM DCT ASLEP DCT TAKUT DCT DINKU L603 OLETU T702 BADIT BADIT2R
Aircraft A320/M-SDE2E3FGIJ1LORWXYZ/HB1

Departure

Time 2026-05-05 17:39
Airport Frankfurt Main Airport (EDDF)

Arrival

Time 2026-05-05 18:22
Airport Salzburg Airport (LOWS)
Time Latitude Longitude Altitude Speed Heading
2026-05-05 17:08 50.04390 8.56168 356 ft 0 kts 155°
2026-05-05 17:25 50.04391 8.56168 356 ft 2 kts 155°
2026-05-05 17:25 50.04405 8.56156 364 ft 2 kts 149°
2026-05-05 17:26 50.04415 8.56146 362 ft 2 kts 139°
2026-05-05 17:26 50.04426 8.56128 358 ft 2 kts 130°
2026-05-05 17:26 50.04443 8.56106 359 ft 2 kts 175°
2026-05-05 17:26 50.04453 8.56119 364 ft 2 kts 248°
2026-05-05 17:27 50.04454 8.56125 364 ft 1 kts 250°
2026-05-05 17:27 50.04455 8.56126 364 ft 0 kts 250°
2026-05-05 17:29 50.04449 8.56104 358 ft 7 kts 250°
2026-05-05 17:29 50.04436 8.56060 356 ft 2 kts 238°
2026-05-05 17:29 50.04396 8.56017 356 ft 13 kts 195°
2026-05-05 17:29 50.04319 8.56071 357 ft 11 kts 159°
2026-05-05 17:30 50.04261 8.56030 359 ft 11 kts 242°
2026-05-05 17:30 50.04236 8.55924 357 ft 11 kts 247°
2026-05-05 17:30 50.04200 8.55778 353 ft 17 kts 250°
2026-05-05 17:30 50.04160 8.55612 356 ft 16 kts 249°
2026-05-05 17:31 50.04124 8.55460 358 ft 15 kts 249°
2026-05-05 17:31 50.04083 8.55286 357 ft 19 kts 250°
2026-05-05 17:31 50.04039 8.55104 360 ft 20 kts 249°
2026-05-05 17:31 50.03984 8.54876 353 ft 24 kts 249°
2026-05-05 17:32 50.03927 8.54636 350 ft 24 kts 250°
2026-05-05 17:32 50.03864 8.54380 352 ft 25 kts 243°
2026-05-05 17:32 50.03786 8.54168 349 ft 21 kts 249°
2026-05-05 17:32 50.03738 8.53966 344 ft 19 kts 250°
2026-05-05 17:33 50.03689 8.53762 352 ft 22 kts 250°
2026-05-05 17:33 50.03633 8.53540 339 ft 21 kts 249°
2026-05-05 17:33 50.03583 8.53331 336 ft 20 kts 249°
2026-05-05 17:33 50.03536 8.53132 337 ft 19 kts 250°
2026-05-05 17:34 50.03491 8.52950 334 ft 18 kts 249°
2026-05-05 17:34 50.03449 8.52788 336 ft 12 kts 244°
2026-05-05 17:34 50.03424 8.52704 333 ft 7 kts 246°
2026-05-05 17:34 50.03401 8.52625 332 ft 7 kts 241°
2026-05-05 17:35 50.03382 8.52599 333 ft 1 kts 205°
2026-05-05 17:35 50.03379 8.52598 333 ft 2 kts 199°
2026-05-05 17:35 50.03373 8.52597 334 ft 0 kts 191°
2026-05-05 17:36 50.03369 8.52597 334 ft 0 kts 184°
2026-05-05 17:38 50.03366 8.52596 336 ft 5 kts 184°
2026-05-05 17:38 50.03070 8.52597 336 ft 79 kts 179°
2026-05-05 17:38 50.02310 8.52605 332 ft 137 kts 179°
2026-05-05 17:39 50.01226 8.52617 601 ft 162 kts 181°
2026-05-05 17:39 50.00107 8.52634 1400 ft 161 kts 181°
2026-05-05 17:39 49.98957 8.52638 1982 ft 174 kts 182°
2026-05-05 17:39 49.97673 8.52703 2352 ft 197 kts 171°
2026-05-05 17:40 49.96376 8.53723 2742 ft 226 kts 136°
2026-05-05 17:40 49.95488 8.55814 3489 ft 236 kts 120°
2026-05-05 17:40 49.94689 8.58054 4439 ft 237 kts 121°
2026-05-05 17:40 49.94085 8.60460 5336 ft 245 kts 103°
2026-05-05 17:41 49.93913 8.63241 5835 ft 270 kts 95°
2026-05-05 17:41 49.93759 8.66158 6601 ft 278 kts 102°
2026-05-05 17:41 49.93132 8.69038 7481 ft 280 kts 121°
2026-05-05 17:41 49.91977 8.71404 8380 ft 280 kts 139°
2026-05-05 17:42 49.90422 8.73240 9304 ft 282 kts 147°
2026-05-05 17:42 49.88882 8.75159 10165 ft 288 kts 137°
2026-05-05 17:42 49.87614 8.77676 10707 ft 308 kts 123°
2026-05-05 17:42 49.86525 8.80677 11107 ft 328 kts 121°
2026-05-05 17:43 49.85401 8.83812 11812 ft 335 kts 121°
2026-05-05 17:43 49.84260 8.86999 12611 ft 340 kts 121°
2026-05-05 17:43 49.83101 8.90226 13393 ft 345 kts 121°
2026-05-05 17:43 49.81918 8.93495 14101 ft 350 kts 122°
2026-05-05 17:44 49.80721 8.96789 14808 ft 353 kts 122°
2026-05-05 17:44 49.79512 9.00111 15527 ft 356 kts 122°
2026-05-05 17:44 49.78289 9.03457 16255 ft 358 kts 122°
2026-05-05 17:44 49.77019 9.06799 16975 ft 361 kts 123°
2026-05-05 17:45 49.75709 9.10127 17704 ft 364 kts 124°
2026-05-05 17:45 49.74370 9.13465 18365 ft 367 kts 124°
2026-05-05 17:45 49.73015 9.16827 18975 ft 369 kts 124°
2026-05-05 17:45 49.71654 9.20208 19571 ft 372 kts 124°
2026-05-05 17:46 49.70288 9.23616 20188 ft 374 kts 123°
2026-05-05 17:46 49.68919 9.27048 20794 ft 376 kts 123°
2026-05-05 17:46 49.67545 9.30500 21385 ft 379 kts 123°
2026-05-05 17:46 49.66162 9.33966 21958 ft 381 kts 123°
2026-05-05 17:47 49.64765 9.37461 22532 ft 384 kts 123°
2026-05-05 17:47 49.63355 9.40979 23099 ft 386 kts 123°
2026-05-05 17:47 49.61936 9.44515 23612 ft 389 kts 123°
2026-05-05 17:47 49.60506 9.48077 24086 ft 391 kts 123°
2026-05-05 17:48 49.59048 9.51700 24569 ft 393 kts 123°
2026-05-05 17:48 49.57605 9.55282 25039 ft 394 kts 123°
2026-05-05 17:48 49.56153 9.58876 25495 ft 396 kts 123°
2026-05-05 17:48 49.54691 9.62492 25971 ft 398 kts 123°
2026-05-05 17:49 49.53223 9.66122 26425 ft 400 kts 123°
2026-05-05 17:49 49.51752 9.69755 26871 ft 402 kts 124°
2026-05-05 17:49 49.50267 9.73418 27320 ft 403 kts 124°
2026-05-05 17:49 49.48777 9.77089 27745 ft 406 kts 124°
2026-05-05 17:50 49.47275 9.80781 28172 ft 407 kts 125°
2026-05-05 17:50 49.45588 9.84201 28570 ft 408 kts 131°
2026-05-05 17:50 49.43779 9.87563 28808 ft 409 kts 131°
2026-05-05 17:50 49.41980 9.90872 28838 ft 395 kts 131°
2026-05-05 17:51 49.40252 9.94044 28841 ft 385 kts 132°
2026-05-05 17:51 49.38492 9.97260 28841 ft 399 kts 132°
2026-05-05 17:51 49.36685 10.00553 28838 ft 408 kts 132°
2026-05-05 17:52 49.33008 10.07278 28837 ft 412 kts 132°
2026-05-05 17:52 49.29325 10.14022 28838 ft 413 kts 132°
2026-05-05 17:53 49.25633 10.20745 28842 ft 413 kts 132°
2026-05-05 17:53 49.21929 10.27459 28848 ft 413 kts 132°
2026-05-05 17:54 49.18229 10.34177 28845 ft 412 kts 132°
2026-05-05 17:54 49.14530 10.40867 28838 ft 412 kts 133°
2026-05-05 17:55 49.10825 10.47549 28835 ft 412 kts 133°
2026-05-05 17:55 49.07116 10.54226 28839 ft 412 kts 133°
2026-05-05 17:56 49.03399 10.60896 28838 ft 412 kts 133°
2026-05-05 17:56 48.99680 10.67550 28839 ft 412 kts 133°
2026-05-05 17:57 48.95969 10.74170 28835 ft 412 kts 133°
2026-05-05 17:57 48.92231 10.80819 28615 ft 414 kts 133°
2026-05-05 17:57 48.90358 10.84146 28332 ft 415 kts 133°
2026-05-05 17:58 48.88479 10.87482 28055 ft 416 kts 133°
2026-05-05 17:58 48.86599 10.90812 27778 ft 416 kts 133°
2026-05-05 17:58 48.84718 10.94141 27500 ft 415 kts 134°
2026-05-05 17:58 48.82840 10.97463 27234 ft 414 kts 134°
2026-05-05 17:59 48.80970 11.00769 26972 ft 412 kts 134°
2026-05-05 17:59 48.79104 11.04061 26703 ft 411 kts 134°
2026-05-05 17:59 48.77237 11.07344 26441 ft 410 kts 134°
2026-05-05 17:59 48.75374 11.10617 26187 ft 409 kts 134°
2026-05-05 18:00 48.73519 11.13877 25933 ft 408 kts 134°
2026-05-05 18:00 48.71668 11.17129 25679 ft 407 kts 134°
2026-05-05 18:00 48.69815 11.20381 25422 ft 406 kts 134°
2026-05-05 18:00 48.67973 11.23609 25187 ft 405 kts 134°
2026-05-05 18:01 48.66132 11.26826 24950 ft 404 kts 134°
2026-05-05 18:01 48.64288 11.30045 24700 ft 403 kts 134°
2026-05-05 18:01 48.62464 11.33230 24260 ft 398 kts 134°
2026-05-05 18:01 48.60658 11.36379 23699 ft 395 kts 134°
2026-05-05 18:02 48.58865 11.39494 23132 ft 391 kts 134°
2026-05-05 18:02 48.57088 11.42580 22578 ft 387 kts 134°
2026-05-05 18:02 48.55335 11.45622 22119 ft 381 kts 134°
2026-05-05 18:02 48.53622 11.48596 21648 ft 376 kts 134°
2026-05-05 18:03 48.51912 11.51559 21197 ft 371 kts 134°
2026-05-05 18:03 48.50221 11.54485 20763 ft 367 kts 134°
2026-05-05 18:03 48.48548 11.57376 20303 ft 364 kts 134°
2026-05-05 18:03 48.47039 11.60437 19899 ft 371 kts 124°
2026-05-05 18:04 48.45872 11.63987 19520 ft 382 kts 114°
2026-05-05 18:04 48.44970 11.67768 19155 ft 384 kts 112°
2026-05-05 18:04 48.44067 11.71553 18786 ft 383 kts 113°
2026-05-05 18:04 48.43172 11.75267 18437 ft 381 kts 113°
2026-05-05 18:05 48.42266 11.79010 18083 ft 379 kts 112°
2026-05-05 18:05 48.41365 11.82727 17675 ft 377 kts 112°
2026-05-05 18:05 48.40467 11.86432 17270 ft 376 kts 113°
2026-05-05 18:05 48.39570 11.90125 16882 ft 374 kts 112°
2026-05-05 18:06 48.38678 11.93792 16516 ft 373 kts 112°
2026-05-05 18:06 48.38376 11.95030 16399 ft 372 kts 112°
2026-05-05 18:06 48.36894 12.01095 15801 ft 370 kts 112°
2026-05-05 18:06 48.36307 12.03494 15568 ft 369 kts 112°
2026-05-05 18:07 48.35420 12.07116 15219 ft 367 kts 112°
2026-05-05 18:07 48.34540 12.10706 14872 ft 366 kts 112°
2026-05-05 18:07 48.33661 12.14289 14531 ft 364 kts 112°
2026-05-05 18:07 48.32786 12.17853 14193 ft 363 kts 112°
2026-05-05 18:08 48.31916 12.21395 13852 ft 361 kts 112°
2026-05-05 18:08 48.31045 12.24935 13520 ft 360 kts 112°
2026-05-05 18:08 48.30177 12.28455 13149 ft 358 kts 112°
2026-05-05 18:08 48.29315 12.31946 12773 ft 356 kts 112°
2026-05-05 18:09 48.28456 12.35424 12406 ft 354 kts 112°
2026-05-05 18:09 48.27600 12.38877 12052 ft 352 kts 113°
2026-05-05 18:09 48.26747 12.42307 11681 ft 350 kts 113°
2026-05-05 18:09 48.25901 12.45706 11338 ft 344 kts 113°
2026-05-05 18:10 48.25069 12.49036 10991 ft 338 kts 113°
2026-05-05 18:10 48.24249 12.52313 10639 ft 333 kts 113°
2026-05-05 18:10 48.23442 12.55537 10297 ft 327 kts 114°
2026-05-05 18:10 48.22659 12.58665 9969 ft 313 kts 114°
2026-05-05 18:11 48.21910 12.61669 9617 ft 302 kts 114°
2026-05-05 18:11 48.21178 12.64596 9257 ft 298 kts 114°
2026-05-05 18:11 48.20449 12.67498 8896 ft 296 kts 114°
2026-05-05 18:11 48.19737 12.70332 8532 ft 293 kts 113°
2026-05-05 18:12 48.19021 12.73178 8176 ft 291 kts 113°
2026-05-05 18:12 48.18310 12.76002 7870 ft 289 kts 113°
2026-05-05 18:12 48.17592 12.78797 7605 ft 286 kts 117°
2026-05-05 18:12 48.16553 12.81299 7356 ft 282 kts 133°
2026-05-05 18:13 48.15108 12.83240 7108 ft 277 kts 149°
2026-05-05 18:13 48.13395 12.84498 6867 ft 273 kts 165°
2026-05-05 18:13 48.11552 12.85196 6622 ft 273 kts 169°
2026-05-05 18:13 48.09707 12.85860 6392 ft 273 kts 168°
2026-05-05 18:14 48.07862 12.86528 6274 ft 273 kts 168°
2026-05-05 18:14 48.06014 12.87195 6152 ft 273 kts 169°
2026-05-05 18:14 48.04161 12.87865 6018 ft 274 kts 168°
2026-05-05 18:14 48.02342 12.88725 5895 ft 276 kts 158°
2026-05-05 18:15 48.00722 12.90213 5767 ft 279 kts 142°
2026-05-05 18:15 47.99411 12.92358 5642 ft 282 kts 124°
2026-05-05 18:15 47.98578 12.95006 5513 ft 282 kts 106°
2026-05-05 18:15 47.98233 12.97808 5386 ft 268 kts 102°
2026-05-05 18:16 47.97448 13.00209 5254 ft 253 kts 135°
2026-05-05 18:16 47.96057 13.01687 5144 ft 241 kts 157°
2026-05-05 18:16 47.94494 13.02400 5034 ft 230 kts 173°
2026-05-05 18:16 47.92942 13.02815 5003 ft 225 kts 171°
2026-05-05 18:17 47.91407 13.03273 5002 ft 224 kts 171°
2026-05-05 18:17 47.89919 13.03735 5021 ft 210 kts 171°
2026-05-05 18:17 47.88509 13.04175 5015 ft 204 kts 171°
2026-05-05 18:17 47.87130 13.04599 4939 ft 202 kts 171°
2026-05-05 18:18 47.85777 13.05012 4630 ft 200 kts 171°
2026-05-05 18:18 47.84407 13.05430 4329 ft 197 kts 171°
2026-05-05 18:18 47.83086 13.05832 4046 ft 194 kts 171°
2026-05-05 18:18 47.81784 13.06225 3837 ft 186 kts 171°
2026-05-05 18:19 47.80553 13.06614 3650 ft 175 kts 170°
2026-05-05 18:19 47.79384 13.06985 3427 ft 168 kts 170°
2026-05-05 18:19 47.78254 13.07315 3191 ft 161 kts 171°
2026-05-05 18:19 47.77191 13.07588 2946 ft 150 kts 173°
2026-05-05 18:20 47.76174 13.07445 2723 ft 147 kts 201°
2026-05-05 18:20 47.75334 13.06621 2520 ft 145 kts 230°
2026-05-05 18:20 47.74839 13.05360 2382 ft 140 kts 257°
2026-05-05 18:20 47.74849 13.03944 2161 ft 138 kts 298°
2026-05-05 18:21 47.75477 13.02949 2064 ft 133 kts 327°
2026-05-05 18:21 47.76303 13.02299 1896 ft 135 kts 338°
2026-05-05 18:21 47.77172 13.01755 1719 ft 136 kts 338°
2026-05-05 18:21 47.78044 13.01209 1533 ft 136 kts 338°
2026-05-05 18:22 47.78897 13.00658 1422 ft 125 kts 340°
2026-05-05 18:22 47.79553 13.00252 1423 ft 79 kts 336°
2026-05-05 18:22 47.79983 12.99981 1420 ft 60 kts 337°
2026-05-05 18:22 47.80244 12.99816 1420 ft 17 kts 336°
2026-05-05 18:23 47.80279 12.99719 1421 ft 13 kts 260°
2026-05-05 18:23 47.80212 12.99593 1421 ft 18 kts 196°
2026-05-05 18:23 47.80116 12.99634 1420 ft 13 kts 158°
2026-05-05 18:23 47.80041 12.99680 1420 ft 13 kts 156°
2026-05-05 18:24 47.79953 12.99737 1420 ft 14 kts 157°
2026-05-05 18:24 47.79874 12.99787 1420 ft 10 kts 157°
2026-05-05 18:24 47.79801 12.99833 1420 ft 15 kts 158°
2026-05-05 18:24 47.79688 12.99905 1420 ft 21 kts 157°
2026-05-05 18:25 47.79543 12.99997 1420 ft 23 kts 157°
2026-05-05 18:25 47.79449 13.00056 1420 ft 21 kts 156°
2026-05-05 18:25 47.79351 13.00062 1420 ft 10 kts 229°
2026-05-05 18:25 47.79327 12.99969 1420 ft 9 kts 238°
2026-05-05 18:26 47.79276 12.99955 1420 ft 7 kts 162°
2026-05-05 18:26 47.79231 12.99982 1420 ft 7 kts 156°
2026-05-05 18:26 47.79194 13.00004 1420 ft 0 kts 163°
2026-05-05 18:26 47.79190 12.99999 1420 ft 1 kts 211°
2026-05-05 18:27 47.79191 12.99948 1420 ft 7 kts 281°
2026-05-05 18:27 47.79198 12.99899 1420 ft 0 kts 282°